Weather History for Manhattan, KS

Change the Weather History Date:

Monday, July 15, 2013

  Actual Average Record
Temperature  
Mean Temperature 78 °F 79 °F  
Max Temperature 92 °F 91 °F 102 °F (2000)
Min Temperature 64 °F 67 °F 49 °F (2014)
Degree Days  
Heating Degree Days 0 0  
Month to date heating degree days 0 0  
Since 1 June heating degree days 9 11  
Since 1 July heating degree days 0 0  
Cooling Degree Days 13 14  
Month to date cooling degree days 222 204  
Year to date cooling degree days 676 574  
Since 1 June cooling degree days 540 474  
Growing Degree Days 28 (Base 50)    
Moisture  
Dew Point 62 °F    
Average Humidity 63    
Maximum Humidity 87    
Minimum Humidity 38    
Precipitation  
Precipitation 0.00 in 0.14 in 0.23 in (2010)
Month to date precipitation 0.44 2.14  
Year to date precipitation 13.23 18.43  
Sea Level Pressure  
Sea Level Pressure 30.11 in    
Wind  
Wind Speed 5 mph (ESE)    
Max Wind Speed 20 mph    
Max Gust Speed 28 mph    
Visibility 10 miles    
Events      
T = Trace of Precipitation, MM = Missing Value Source: NWS Daily Summary

Daily Weather History Graph

Daily Weather History Graph

Search for Another Location

Airport:

Trip Planner

Search our weather history database for the weather conditions in past years. The results will help you decide how hot, cold, wet, or windy it might be!

Date:

Astronomy

Jul. 15, 2013 Rise Set
Actual Time 6:13 AM CDT 8:51 PM CDT
Civil Twilight 5:41 AM CDT 9:23 PM CDT
Nautical Twilight 5:02 AM CDT 10:01 PM CDT
Astronomical Twilight 4:19 AM CDT 10:45 PM CDT
Moon 1:30 PM CDT (7/15) 12:08 AM CDT (7/15)
Length of Visible Light 15h 41m
Length of Day
14h 38m
Waxing Crescent, 45% of the Moon is Illuminated
Jul 15
Waxing Crescent
Jul 15
First Quarter
Jul 22
Full
Jul 29
Last Quarter
Aug 6
New

Hourly Weather History & Observations

Time (CDT) Temp. Heat Index Dew Point Humidity Pressure Visibility Wind Dir Wind Speed Gust Speed Precip Events Conditions
12:52 AM 70.0 °F - 59.0 °F 68% 30.10 in 10.0 mi Calm Calm - N/A   Clear
1:52 AM 70.0 °F - 59.0 °F 68% 30.10 in 10.0 mi Calm Calm - N/A   Clear
2:52 AM 64.0 °F - 59.0 °F 84% 30.10 in 10.0 mi Calm Calm - N/A   Clear
3:52 AM 64.9 °F - 60.1 °F 84% 30.10 in 10.0 mi North 4.6 mph - N/A   Clear
4:52 AM 66.9 °F - 60.1 °F 79% 30.10 in 10.0 mi Calm Calm - N/A   Clear
5:52 AM 66.0 °F - 60.1 °F 81% 30.12 in 10.0 mi Calm Calm - N/A   Clear
6:52 AM 66.0 °F - 61.0 °F 84% 30.13 in 8.0 mi NNE 4.6 mph - N/A   Clear
7:52 AM 71.1 °F - 63.0 °F 75% 30.14 in 8.0 mi ENE 3.5 mph - N/A   Clear
8:52 AM 73.9 °F - 64.0 °F 71% 30.15 in 10.0 mi East 5.8 mph - N/A   Clear
9:52 AM 79.0 °F - 64.9 °F 62% 30.15 in 10.0 mi ENE 4.6 mph - N/A   Clear
10:52 AM 84.9 °F 86.1 °F 64.0 °F 49% 30.14 in 10.0 mi ESE 5.8 mph - N/A   Clear
11:52 AM 87.1 °F 87.0 °F 61.0 °F 41% 30.14 in 10.0 mi ESE 6.9 mph - N/A   Clear
12:52 PM 89.1 °F 90.0 °F 63.0 °F 42% 30.13 in 10.0 mi East 6.9 mph - N/A   Clear
1:52 PM 88.0 °F 88.4 °F 62.1 °F 42% 30.11 in 10.0 mi ESE 8.1 mph 16.1 mph N/A   Partly Cloudy
2:52 PM 90.0 °F 90.6 °F 63.0 °F 40% 30.09 in 10.0 mi ESE 10.4 mph 17.3 mph N/A   Mostly Cloudy
3:52 PM 91.0 °F 91.5 °F 62.1 °F 38% 30.08 in 10.0 mi ESE 12.7 mph 19.6 mph N/A   Clear
4:52 PM 89.1 °F 89.0 °F 61.0 °F 39% 30.06 in 10.0 mi East 13.8 mph 20.7 mph N/A   Clear
5:52 PM 88.0 °F 87.9 °F 61.0 °F 40% 30.06 in 10.0 mi ESE 9.2 mph - N/A   Overcast
6:52 PM 88.0 °F 88.4 °F 62.1 °F 42% 30.07 in 10.0 mi SSE 8.1 mph - N/A   Overcast
7:52 PM 82.9 °F 83.7 °F 62.1 °F 49% 30.10 in 10.0 mi ESE 6.9 mph - N/A   Overcast
8:52 PM 80.1 °F 81.2 °F 62.1 °F 54% 30.11 in 10.0 mi South 3.5 mph - N/A   Mostly Cloudy
9:52 PM 75.0 °F - 62.1 °F 64% 30.13 in 10.0 mi SW 4.6 mph - N/A   Clear
10:52 PM 73.9 °F - 64.0 °F 71% 30.15 in 10.0 mi SW 4.6 mph - N/A   Clear
11:52 PM 72.0 °F - 64.0 °F 76% 30.17 in 10.0 mi WSW 3.5 mph - N/A   Partly Cloudy